Time,TemperatureF,DewpointF,PressureIn,WindDirection,WindDirectionDegrees,WindSpeedMPH,WindSpeedGustMPH,Humidity,HourlyPrecipIn,Conditions,Clouds,dailyrainin,SoftwareType,DateUTC
2013-03-25 00:03:00,38.0,27.0,29.67,ESE,107,0.0,2.0,63,0.00,,,0.00,,2013-03-25 04:03:00,
2013-03-25 00:13:00,38.0,27.0,29.67,ESE,107,0.0,2.0,63,0.00,,,0.00,,2013-03-25 04:13:00,
2013-03-25 00:22:00,38.0,27.0,29.67,ESE,121,0.0,3.0,64,0.00,,,0.00,,2013-03-25 04:22:00,
2013-03-25 00:33:00,38.0,27.0,29.68,SE,140,0.0,2.0,64,0.00,,,0.00,,2013-03-25 04:33:00,
2013-03-25 00:43:00,38.0,27.0,29.68,SE,140,0.0,2.0,64,0.00,,,0.00,,2013-03-25 04:43:00,
2013-03-25 00:52:00,38.0,27.0,29.68,East,91,0.0,3.0,65,0.00,,,0.00,,2013-03-25 04:52:00,
2013-03-25 01:03:00,38.0,27.0,29.68,East,91,0.0,3.0,65,0.00,,,0.00,,2013-03-25 05:03:00,
2013-03-25 01:12:00,38.0,27.0,29.68,East,91,0.0,3.0,65,0.00,,,0.00,,2013-03-25 05:12:00,
2013-03-25 01:22:00,37.0,27.0,29.66,ESE,107,0.0,3.0,67,0.00,,,0.00,,2013-03-25 05:22:00,
2013-03-25 01:32:00,37.0,27.0,29.66,ENE,61,0.0,2.0,67,0.00,,,0.00,,2013-03-25 05:32:00,
2013-03-25 01:42:00,37.0,27.0,29.66,ENE,61,0.0,2.0,67,0.00,,,0.00,,2013-03-25 05:42:00,
2013-03-25 01:52:00,37.0,27.0,29.65,NE,43,1.0,3.0,67,0.00,,,0.00,,2013-03-25 05:52:00,
2013-03-25 02:02:00,37.0,27.0,29.65,NE,42,1.0,2.0,68,0.00,,,0.00,,2013-03-25 06:02:00,
2013-03-25 02:12:00,37.0,27.0,29.65,NE,42,1.0,2.0,68,0.00,,,0.00,,2013-03-25 06:12:00,
2013-03-25 02:22:00,37.0,28.0,29.65,East,85,0.0,1.0,69,0.00,,,0.00,,2013-03-25 06:22:00,
2013-03-25 02:32:00,37.0,28.0,29.64,ENE,69,0.0,2.0,69,0.00,,,0.00,,2013-03-25 06:32:00,
2013-03-25 02:42:00,37.0,28.0,29.64,ENE,69,0.0,2.0,69,0.00,,,0.00,,2013-03-25 06:42:00,
2013-03-25 02:52:00,37.0,27.0,29.62,NE,44,1.0,4.0,68,0.00,,,0.00,,2013-03-25 06:52:00,
2013-03-25 03:02:00,37.0,28.0,29.61,NE,47,1.0,4.0,69,0.00,,,0.00,,2013-03-25 07:02:00,
2013-03-25 03:12:00,37.0,28.0,29.61,NE,47,1.0,4.0,69,0.00,,,0.00,,2013-03-25 07:12:00,
2013-03-25 03:22:00,37.0,28.0,29.61,NE,51,1.0,5.0,69,0.00,,,0.00,,2013-03-25 07:22:00,
2013-03-25 03:32:00,37.0,28.0,29.59,East,94,1.0,6.0,69,0.00,,,0.00,,2013-03-25 07:32:00,
2013-03-25 03:42:00,37.0,28.0,29.59,East,94,1.0,6.0,69,0.00,,,0.00,,2013-03-25 07:42:00,
2013-03-25 03:53:00,37.0,28.0,29.59,East,94,1.0,6.0,69,0.00,,,0.00,,2013-03-25 07:53:00,
2013-03-25 04:02:00,37.0,28.0,29.59,East,94,1.0,6.0,69,0.00,,,0.00,,2013-03-25 08:02:00,
2013-03-25 04:12:00,37.0,28.0,29.59,East,94,1.0,6.0,69,0.00,,,0.00,,2013-03-25 08:12:00,
2013-03-25 04:23:00,37.0,28.0,29.57,ENE,66,1.0,7.0,70,0.00,,,0.00,,2013-03-25 08:23:00,
2013-03-25 04:32:00,37.0,28.0,29.57,ENE,74,2.0,5.0,70,0.00,,,0.00,,2013-03-25 08:32:00,
2013-03-25 04:43:00,37.0,28.0,29.57,ENE,74,2.0,5.0,70,0.00,,,0.00,,2013-03-25 08:43:00,
2013-03-25 04:52:00,37.0,28.0,29.57,ENE,73,1.0,4.0,70,0.00,,,0.00,,2013-03-25 08:52:00,
2013-03-25 05:02:00,37.0,28.0,29.57,ESE,107,2.0,5.0,70,0.00,,,0.00,,2013-03-25 09:02:00,
2013-03-25 05:12:00,37.0,28.0,29.57,ESE,107,2.0,5.0,70,0.00,,,0.00,,2013-03-25 09:12:00,
2013-03-25 05:22:00,37.0,28.0,29.56,ENE,59,1.0,3.0,71,0.00,,,0.00,,2013-03-25 09:22:00,
2013-03-25 05:33:00,37.0,28.0,29.55,NNE,30,1.0,4.0,71,0.00,,,0.00,,2013-03-25 09:33:00,
2013-03-25 05:43:00,37.0,28.0,29.55,NNE,30,1.0,4.0,71,0.00,,,0.00,,2013-03-25 09:43:00,
2013-03-25 05:53:00,37.0,28.0,29.55,East,90,1.0,5.0,70,0.00,,,0.00,,2013-03-25 09:53:00,
2013-03-25 06:03:00,37.0,28.0,29.56,East,82,2.0,5.0,71,0.00,,,0.00,,2013-03-25 10:03:00,
2013-03-25 06:12:00,37.0,28.0,29.56,East,82,2.0,5.0,71,0.00,,,0.00,,2013-03-25 10:12:00,
2013-03-25 06:22:00,37.0,28.0,29.56,ENE,76,1.0,8.0,71,0.00,,,0.00,,2013-03-25 10:22:00,
2013-03-25 06:33:00,38.0,29.0,29.56,ESE,104,0.0,6.0,71,0.00,,,0.00,,2013-03-25 10:33:00,
2013-03-25 06:42:00,38.0,29.0,29.56,ESE,104,0.0,6.0,71,0.00,,,0.00,,2013-03-25 10:42:00,
2013-03-25 06:54:00,38.0,30.0,29.57,ESE,110,2.0,4.0,72,0.00,,,0.00,,2013-03-25 10:54:00,
2013-03-25 07:03:00,37.0,30.0,29.57,NE,51,0.0,4.0,75,0.00,,,0.00,,2013-03-25 11:03:00,
2013-03-25 07:12:00,36.0,31.0,29.58,ENE,71,1.0,4.0,82,0.00,,,0.00,,2013-03-25 11:12:00,
2013-03-25 07:23:00,36.0,31.0,29.58,ENE,71,1.0,4.0,82,0.00,,,0.00,,2013-03-25 11:23:00,
2013-03-25 07:32:00,35.0,32.0,29.58,ENE,71,1.0,2.0,88,0.00,,,0.00,,2013-03-25 11:32:00,
2013-03-25 07:42:00,35.0,32.0,29.58,ENE,71,1.0,2.0,88,0.00,,,0.00,,2013-03-25 11:42:00,
2013-03-25 07:53:00,33.0,31.0,29.58,ENE,71,0.0,1.0,92,0.00,,,0.00,,2013-03-25 11:53:00,
2013-03-25 08:02:00,33.0,31.0,29.58,ENE,71,0.0,2.0,94,0.00,,,0.00,,2013-03-25 12:02:00,
2013-03-25 08:13:00,33.0,31.0,29.58,ENE,71,0.0,1.0,94,0.00,,,0.00,,2013-03-25 12:13:00,
2013-03-25 08:23:00,33.0,31.0,29.58,ENE,71,0.0,1.0,94,0.00,,,0.00,,2013-03-25 12:23:00,
2013-03-25 08:32:00,33.0,32.0,29.57,ENE,71,1.0,2.0,95,0.00,,,0.00,,2013-03-25 12:32:00,
2013-03-25 08:42:00,33.0,32.0,29.57,ENE,71,1.0,2.0,95,0.00,,,0.00,,2013-03-25 12:42:00,
2013-03-25 08:53:00,33.0,32.0,29.57,ENE,71,1.0,2.0,95,0.00,,,0.00,,2013-03-25 12:53:00,
2013-03-25 09:02:00,33.0,32.0,29.56,ENE,65,0.0,2.0,96,0.00,,,0.00,,2013-03-25 13:02:00,
2013-03-25 09:13:00,33.0,32.0,29.56,ENE,65,0.0,2.0,96,0.00,,,0.00,,2013-03-25 13:13:00,
2013-03-25 09:23:00,33.0,32.0,29.56,NE,44,0.0,1.0,96,0.00,,,0.00,,2013-03-25 13:23:00,
2013-03-25 09:32:00,33.0,32.0,29.56,NE,44,0.0,1.0,96,0.00,,,0.00,,2013-03-25 13:32:00,
2013-03-25 09:43:00,33.0,32.0,29.56,NE,44,0.0,1.0,96,0.00,,,0.00,,2013-03-25 13:43:00,
2013-03-25 09:52:00,33.0,32.0,29.55,NNE,32,1.0,4.0,96,0.00,,,0.00,,2013-03-25 13:52:00,
2013-03-25 10:03:00,33.0,32.0,29.55,ENE,59,2.0,5.0,96,0.00,,,0.00,,2013-03-25 14:03:00,
2013-03-25 10:12:00,33.0,32.0,29.55,ENE,59,2.0,5.0,96,0.00,,,0.00,,2013-03-25 14:12:00,
2013-03-25 10:22:00,33.0,32.0,29.55,NE,51,2.0,5.0,96,0.00,,,0.00,,2013-03-25 14:22:00,
2013-03-25 10:32:00,33.0,32.0,29.54,ENE,63,2.0,4.0,96,0.00,,,0.00,,2013-03-25 14:32:00,
2013-03-25 10:42:00,33.0,32.0,29.54,ENE,63,2.0,4.0,96,0.00,,,0.00,,2013-03-25 14:42:00,
2013-03-25 10:53:00,33.0,32.0,29.54,NE,43,2.0,5.0,96,0.00,,,0.00,,2013-03-25 14:53:00,
2013-03-25 11:03:00,34.0,33.0,29.53,ENE,67,2.0,9.0,96,0.00,,,0.00,,2013-03-25 15:03:00,
2013-03-25 11:13:00,34.0,33.0,29.53,ENE,67,2.0,9.0,96,0.00,,,0.00,,2013-03-25 15:13:00,
2013-03-25 11:23:00,34.0,33.0,29.53,ENE,67,2.0,9.0,96,0.00,,,0.00,,2013-03-25 15:23:00,
2013-03-25 11:33:00,34.0,33.0,29.52,ENE,70,5.0,8.0,96,0.00,,,0.00,,2013-03-25 15:33:00,
2013-03-25 11:42:00,34.0,33.0,29.52,ENE,70,5.0,8.0,96,0.00,,,0.00,,2013-03-25 15:42:00,
2013-03-25 11:54:00,34.0,33.0,29.51,NNE,19,3.0,7.0,95,0.00,,,0.00,,2013-03-25 15:54:00,
2013-03-25 12:03:00,34.0,33.0,29.51,NNE,27,4.0,9.0,95,0.00,,,0.00,,2013-03-25 16:03:00,
2013-03-25 12:12:00,34.0,33.0,29.51,NNE,27,4.0,9.0,95,0.00,,,0.00,,2013-03-25 16:12:00,
2013-03-25 12:23:00,34.0,33.0,29.51,NNE,27,4.0,9.0,95,0.00,,,0.00,,2013-03-25 16:23:00,
2013-03-25 12:33:00,35.0,33.0,29.50,NNE,26,3.0,10.0,94,0.01,,,0.01,,2013-03-25 16:33:00,
2013-03-25 12:43:00,35.0,33.0,29.50,NNE,26,3.0,10.0,94,0.01,,,0.01,,2013-03-25 16:43:00,
2013-03-25 12:53:00,35.0,33.0,29.49,NNE,22,4.0,11.0,93,0.02,,,0.02,,2013-03-25 16:53:00,
2013-03-25 13:03:00,35.0,33.0,29.49,NNE,32,5.0,12.0,92,0.07,,,0.07,,2013-03-25 17:03:00,
2013-03-25 13:12:00,35.0,33.0,29.49,NNE,32,5.0,12.0,92,0.07,,,0.07,,2013-03-25 17:12:00,
2013-03-25 13:23:00,35.0,33.0,29.48,NNE,32,3.0,9.0,92,0.11,,,0.12,,2013-03-25 17:23:00,
2013-03-25 13:33:00,35.0,33.0,29.47,NE,42,7.0,16.0,91,0.14,,,0.15,,2013-03-25 17:33:00,
2013-03-25 13:42:00,35.0,33.0,29.47,NE,42,7.0,16.0,91,0.14,,,0.15,,2013-03-25 17:42:00,
2013-03-25 13:53:00,36.0,34.0,29.48,ENE,73,4.0,11.0,92,0.16,,,0.18,,2013-03-25 17:53:00,
2013-03-25 14:03:00,36.0,34.0,29.48,ENE,65,4.0,10.0,91,0.13,,,0.20,,2013-03-25 18:03:00,
2013-03-25 14:13:00,36.0,34.0,29.48,ENE,65,4.0,10.0,91,0.13,,,0.20,,2013-03-25 18:13:00,
2013-03-25 14:23:00,36.0,34.0,29.48,NNE,22,5.0,10.0,92,0.09,,,0.21,,2013-03-25 18:23:00,
2013-03-25 14:33:00,36.0,34.0,29.48,NNE,23,4.0,11.0,91,0.07,,,0.22,,2013-03-25 18:33:00,
2013-03-25 14:43:00,36.0,34.0,29.48,NNE,23,4.0,11.0,91,0.07,,,0.22,,2013-03-25 18:43:00,
2013-03-25 14:53:00,35.0,33.0,29.47,North,5,2.0,8.0,92,0.05,,,0.23,,2013-03-25 18:53:00,
2013-03-25 15:03:00,35.0,33.0,29.47,North,5,2.0,8.0,92,0.05,,,0.23,,2013-03-25 19:03:00,
2013-03-25 15:13:00,35.0,33.0,29.47,North,5,2.0,8.0,92,0.05,,,0.23,,2013-03-25 19:13:00,
2013-03-25 15:23:00,35.0,33.0,29.47,NNE,29,2.0,4.0,94,0.03,,,0.24,,2013-03-25 19:23:00,
2013-03-25 15:33:00,35.0,33.0,29.47,NE,49,1.0,4.0,94,0.03,,,0.25,,2013-03-25 19:33:00,
2013-03-25 15:43:00,35.0,33.0,29.47,NE,49,1.0,4.0,94,0.03,,,0.25,,2013-03-25 19:43:00,
2013-03-25 15:53:00,35.0,34.0,29.47,North,5,2.0,4.0,95,0.02,,,0.25,,2013-03-25 19:53:00,
2013-03-25 16:02:00,36.0,35.0,29.47,ENE,57,2.0,6.0,95,0.01,,,0.25,,2013-03-25 20:02:00,
2013-03-25 16:12:00,36.0,35.0,29.47,ENE,57,2.0,6.0,95,0.01,,,0.25,,2013-03-25 20:12:00,
2013-03-25 16:22:00,36.0,35.0,29.47,ENE,57,2.0,6.0,95,0.01,,,0.25,,2013-03-25 20:22:00,
2013-03-25 16:32:00,36.0,34.0,29.48,NE,41,2.0,5.0,94,0.01,,,0.26,,2013-03-25 20:32:00,
2013-03-25 16:42:00,36.0,34.0,29.48,NE,41,2.0,5.0,94,0.01,,,0.26,,2013-03-25 20:42:00,
2013-03-25 16:52:00,36.0,35.0,29.48,NE,44,2.0,5.0,95,0.01,,,0.26,,2013-03-25 20:52:00,
2013-03-25 17:03:00,36.0,34.0,29.49,North,355,3.0,5.0,94,0.02,,,0.27,,2013-03-25 21:03:00,
2013-03-25 17:12:00,36.0,34.0,29.49,North,355,3.0,5.0,94,0.02,,,0.27,,2013-03-25 21:12:00,
2013-03-25 17:22:00,36.0,34.0,29.49,North,355,3.0,5.0,94,0.02,,,0.27,,2013-03-25 21:22:00,
2013-03-25 17:33:00,36.0,35.0,29.49,North,5,1.0,3.0,95,0.01,,,0.27,,2013-03-25 21:33:00,
2013-03-25 17:43:00,36.0,35.0,29.49,North,5,1.0,3.0,95,0.01,,,0.27,,2013-03-25 21:43:00,
2013-03-25 17:52:00,36.0,34.0,29.49,NNE,19,1.0,4.0,94,0.01,,,0.27,,2013-03-25 21:52:00,
2013-03-25 18:03:00,36.0,35.0,29.50,North,355,1.0,4.0,95,0.00,,,0.27,,2013-03-25 22:03:00,
2013-03-25 18:12:00,36.0,35.0,29.50,North,355,1.0,4.0,95,0.00,,,0.27,,2013-03-25 22:12:00,
2013-03-25 18:23:00,36.0,35.0,29.50,North,355,1.0,4.0,95,0.00,,,0.27,,2013-03-25 22:23:00,
2013-03-25 18:33:00,36.0,35.0,29.51,NNW,334,0.0,2.0,95,0.00,,,0.27,,2013-03-25 22:33:00,
2013-03-25 18:42:00,36.0,35.0,29.51,NNW,334,0.0,2.0,95,0.00,,,0.27,,2013-03-25 22:42:00,
2013-03-25 18:52:00,36.0,35.0,29.52,NNW,333,1.0,4.0,95,0.01,,,0.28,,2013-03-25 22:52:00,
2013-03-25 19:03:00,36.0,35.0,29.52,NNW,333,0.0,2.0,95,0.01,,,0.28,,2013-03-25 23:03:00,
2013-03-25 19:12:00,36.0,35.0,29.52,NNW,333,0.0,2.0,95,0.01,,,0.28,,2013-03-25 23:12:00,
2013-03-25 19:23:00,36.0,35.0,29.53,NNW,332,0.0,2.0,95,0.01,,,0.28,,2013-03-25 23:23:00,
2013-03-25 19:32:00,36.0,35.0,29.53,NNW,332,0.0,2.0,95,0.01,,,0.28,,2013-03-25 23:32:00,
2013-03-25 19:43:00,36.0,35.0,29.53,NNW,332,0.0,2.0,95,0.01,,,0.28,,2013-03-25 23:43:00,
2013-03-25 19:53:00,35.0,34.0,29.55,NNW,332,1.0,3.0,96,0.01,,,0.29,,2013-03-25 23:53:00,
2013-03-25 20:02:00,35.0,34.0,29.55,WNW,294,0.0,2.0,96,0.01,,,0.29,,2013-03-26 00:02:00,
2013-03-25 20:12:00,35.0,34.0,29.55,WNW,294,0.0,2.0,96,0.01,,,0.29,,2013-03-26 00:12:00,
2013-03-25 20:22:00,35.0,34.0,29.56,WNW,298,1.0,2.0,96,0.02,,,0.30,,2013-03-26 00:22:00,
2013-03-25 20:32:00,35.0,34.0,29.57,West,279,2.0,3.0,96,0.01,,,0.30,,2013-03-26 00:32:00,
2013-03-25 20:42:00,35.0,34.0,29.57,West,279,2.0,3.0,96,0.01,,,0.30,,2013-03-26 00:42:00,
2013-03-25 20:52:00,35.0,34.0,29.57,WNW,286,1.0,4.0,96,0.02,,,0.31,,2013-03-26 00:52:00,
2013-03-25 21:02:00,35.0,34.0,29.58,WNW,288,0.0,3.0,97,0.02,,,0.31,,2013-03-26 01:02:00,
2013-03-25 21:12:00,35.0,34.0,29.58,WNW,288,0.0,3.0,97,0.02,,,0.31,,2013-03-26 01:12:00,
2013-03-25 21:23:00,35.0,34.0,29.58,WNW,290,1.0,3.0,96,0.01,,,0.31,,2013-03-26 01:23:00,
2013-03-25 21:32:00,35.0,34.0,29.59,West,274,0.0,3.0,96,0.01,,,0.31,,2013-03-26 01:32:00,
2013-03-25 21:42:00,35.0,34.0,29.59,West,274,0.0,3.0,96,0.01,,,0.31,,2013-03-26 01:42:00,
2013-03-25 21:52:00,35.0,34.0,29.59,NW,321,1.0,3.0,96,0.01,,,0.32,,2013-03-26 01:52:00,
2013-03-25 22:02:00,35.0,34.0,29.59,NW,321,1.0,3.0,96,0.01,,,0.32,,2013-03-26 02:02:00,
2013-03-25 22:12:00,35.0,34.0,29.59,NW,321,1.0,3.0,96,0.01,,,0.32,,2013-03-26 02:12:00,
2013-03-25 22:22:00,35.0,34.0,29.60,West,271,2.0,3.0,97,0.02,,,0.33,,2013-03-26 02:22:00,
2013-03-25 22:32:00,35.0,34.0,29.61,NW,310,1.0,2.0,97,0.02,,,0.33,,2013-03-26 02:32:00,
2013-03-25 22:43:00,35.0,34.0,29.61,NW,310,1.0,2.0,97,0.02,,,0.33,,2013-03-26 02:43:00,
2013-03-25 22:52:00,35.0,34.0,29.61,NNW,329,0.0,3.0,97,0.01,,,0.33,,2013-03-26 02:52:00,
2013-03-25 23:02:00,35.0,34.0,29.61,NW,320,0.0,1.0,97,0.01,,,0.33,,2013-03-26 03:02:00,
2013-03-25 23:12:00,35.0,34.0,29.61,NW,320,0.0,1.0,97,0.01,,,0.33,,2013-03-26 03:12:00,
2013-03-25 23:22:00,35.0,34.0,29.62,NW,321,0.0,2.0,97,0.00,,,0.33,,2013-03-26 03:22:00,
2013-03-25 23:33:00,35.0,34.0,29.62,NNW,340,0.0,3.0,97,0.00,,,0.33,,2013-03-26 03:33:00,
2013-03-25 23:42:00,35.0,34.0,29.62,NNW,340,0.0,3.0,97,0.00,,,0.33,,2013-03-26 03:42:00,
2013-03-25 23:53:00,36.0,35.0,29.62,NNW,340,0.0,1.0,97,0.01,,,0.34,,2013-03-26 03:53:00,